User: anonymous   Login
Location: Beuvrequen
(50.8014°N, 1.6652°E)
Time: 02:04:12
(UTC+00:00)
Language:

Meteor 1-21 Rocket - Orbit

View from above orbital plane
View from above orbital plane
View from above satellite
View from above satellite

Ground track
Ground track

The orbit data is extracted from the following two-line orbital elements,

1 07715U 75023B   22019.47533173 -.00000074  00000-0 -51698-4 0  9990
2 07715  81.2200  42.1993 0053012  94.2530 266.4699 14.06813178401171
Epoch (UTC): 19 January 2022 11:24:28
Eccentricity: 0.0053012
inclination: 81.2200°
perigee height: 832 km
apogee height: 909 km
right ascension of ascending node: 42.1993°
argument of perigee: 94.2530°
revolutions per day: 14.06813178
mean anomaly at epoch: 266.4699°
orbit number at epoch: 40117

The dashed part of the orbit path shows where the satellite is in the earth's shadow,  

DLR